Regional Weather Roundup
Issued by NWS Wakefield, VA

Home | Current Version | Previous Version | Text Only | Print | Product List | Glossary Off
Versions: 1 2 3 4 5 6 7 8 9 10 11 12 13 14 15 16 17 18 19 20 21 22 23 24 25 26 27 28 29 30 31 32 33 34 35 36 37 38 39 40 41 42 43 44 45 46 47 48 49 50

000
ASUS41 KAKQ 241715
RWRAKQ

REGIONAL WEATHER ROUNDUP
NATIONAL WEATHER SERVICE WAKEFIELD VA
100 PM EDT SUN SEP 24 2017

Note: "fair" indicates few or no clouds below 12,000 feet with no
significant weather and/or obstructions to visibility. * = Denotes
station may not report precipitation (e.g., rain,snow,etc.),
thunder or fog.

VAZ042-051-052>054-056-241800-
NORTHERN VIRGINIA

CITY           SKY/WX    TMP DP  RH WIND       PRES   REMARKS
WASH NATIONAL  MOSUNNY   89  65  44 CALM      30.08F
DULLES         MOSUNNY   86  66  51 NE8       30.09F
FORT BELVOIR   SUNNY     88  64  45 N5        30.08F
QUANTICO       SUNNY     84  68  58 E7        30.09F
FREDERICKSBRG* SUNNY     85  65  51 CALM      30.07F
STAFFORD*      SUNNY     87  60  40 CALM      30.13S
WARRENTON      SUNNY     88  59  37 N7        30.09F
CULPEPER*      SUNNY     88  65  46 NE3       30.10F
MANASSAS*      SUNNY     87  66  49 VRB6      30.09F
LEESBURG*      SUNNY     86  66  51 N7        30.11F
WINCHESTER     SUNNY     81  61  50 NE5       30.13F
FRONT ROYAL*   SUNNY     81  61  50 NE3       30.13S
LURAY*         SUNNY     86  61  42 NE9       30.13F
$$

VAZ048-049-060>072-079>083-241800-
CENTRAL AND SOUTH CENTRAL VIRGINIA

CITY           SKY/WX    TMP DP  RH WIND       PRES   REMARKS
RICHMOND       PTSUNNY   89  62  40 N8G17     30.07S
CHESTERFIELD*  NOT AVBL
PETERSBURG*    SUNNY     86  56  36 N8        30.08S
HANOVER        SUNNY     88  63  43 NE7       30.08F
TAPPAHANNOCK*  SUNNY     89  53  28 NE7       30.08F
QUINTON*       FAIR      86  65  48 E5        30.07S
CHARLOTTSVILLE SUNNY     88  63  43 NE12      30.10F
GORDONSVILLE*  SUNNY     85  64  49 NE6       30.09F
ORANGE*        SUNNY     86  63  45 N7        30.10S
LOUISA*        SUNNY     84  63  48 E7        30.09F
BUMPASS*       FAIR      85  66  53 NW5       30.09F
FARMVILLE*     SUNNY     89  62  39 NE9G17    30.08F
CREWE*         FAIR      85  63  47 NE5       30.09S
FORT PICKETT*  FAIR      85  62  45 NE8       30.09S
CHASE CITY*    FAIR      84  59  42 NE5       30.09F
CLARKSVILLE*   FAIR      86  59  39 N8        30.08F
SOUTH HILL*    SUNNY     84  63  48 N5        30.14S
LAWRENCEVILLE* FAIR      85  60  43 CALM      30.07F
EMPORIA*       SUNNY     82  63  51 N6        30.07F
$$

VAZ088>098-241800-
SOUTHEAST VIRGINIA

CITY           SKY/WX    TMP DP  RH WIND       PRES   REMARKS
NORFOLK        SUNNY     82  72  71 N10       30.05F
VIRGINIA BEACH PTSUNNY   83  64  52 NE9       30.04S
NORFOLK NAVAL  MOSUNNY   84  70  62 N12       30.07S
WEST POINT*    SUNNY     86  61  42 NE7       30.08S
SALUDA*        FAIR      85  61  44 N5        30.06F
NEWPORT NEWS   SUNNY     84  62  47 NE8       30.06S
LANGLEY AFB    MOSUNNY   83  67  58 NE10      30.06S
FORT EUSTIS    SUNNY     90  60  36 NE9       30.04S
WILLIAMSBURG*  SUNNY     90  64  43 CALM      30.07S
HR EXEC AP*    FAIR      85  64  49 VRB7      30.06F
FRANKLIN*      MOSUNNY  N/A N/A N/A NE8       30.06S
US460-WAKEFLD  SUNNY     86  63  45 E7        30.06F
$$

VAZ020-022-025-037-045-241800-
WEST CENTRAL AND SOUTHWEST VIRGINIA

CITY           SKY/WX    TMP DP  RH WIND       PRES   REMARKS
STAUNTON*      SUNNY     82  60  47 CALM      30.17F
WAYNESBORO*    SUNNY     80  61  51 N7        30.16F
HOT SPRINGS VA SUNNY     74  50  43 E6        30.28F
LYNCHBURG      SUNNY     84  57  39 E10       30.12F
DANVILLE       SUNNY     84  60  44 NE8       30.10F
SOUTH BOSTON*  FAIR      85  58  40 NE6       30.09F
MARTINSVILLE   SUNNY     82  58  43 NE5       30.15F
ROANOKE        MOSUNNY   83  56  39 N9        30.15F
BLACKSBURG     SUNNY     81  53  37 E12G18    30.21F
DUBLIN*        SUNNY     80  57  44 E7        30.19F
MARION*        SUNNY     80  49  34 E7        30.22F
HILLSVILLE*    SUNNY     76  52  41 CALM      30.19F
RICHLANDS*     FAIR      81  51  35 SE3       30.19F
WISE*          SUNNY     81  43  26 CALM      30.21S
ABINGDON*      SUNNY     81  55  40 CALM      30.16F
$$

MDZ021>025-VAZ099-100-241800-
SOUTHERN MARYLAND AND THE DELMARVA PENINSULA

CITY           SKY/WX    TMP DP  RH WIND       PRES   REMARKS
PATUXENT RIVER PTSUNNY   85  65  51 N7        30.07S
BAY BRIDGE APT SUNNY     81  68  65 N7        30.08S
LEONARDTOWN    SUNNY     81  64  57 NE5       30.09F
DOVER          SUNNY     86  61  42 NE7       30.05F
GEORGETOWN     SUNNY     87  60  40 NE10      30.07F
EASTON         MOSUNNY   88  63  42 N5        30.10F
CAMBRIDGE      SUNNY     84  64  51 N6        30.06F
SALISBURY      SUNNY     86  61  42 E13       30.06S
OCEAN CITY     SUNNY     79  66  64 E9        30.08R
WALLOPS ISLAND SUNNY     81  67  62 E10       30.07S
ACCOMACK*      SUNNY     83  64  51 E8        30.06S
$$

NCZ012>017-030>032-241800-
NORTH CENTRAL AND EASTERN NORTH CAROLINA

CITY           SKY/WX    TMP DP  RH WIND       PRES   REMARKS
ROANOKE RAPIDS FAIR      84  63  48 N8        30.06F
RALEIGH        PTSUNNY   83  63  50 NE10      30.08F
ELIZABETH CITY SUNNY     85  66  53 NE9       30.04F
AHOSKIE*       SUNNY     82  63  52 NE5       30.05F
EDENTON*       SUNNY     85  69  57 CALM      30.05F
CURRITUCK*     SUNNY     82  64  54 N9        30.05F
KILL DEVIL HLS SUNNY     76  67  73 CALM      30.04S
MANTEO         SUNNY     78  69  73 NE9       30.05S
CAPE HATTERAS  MOSUNNY   80  68  66 NE13G23   30.01F
TARBORO*       NOT AVBL
GOLDSBORO      SUNNY     83  69  63 NE9       30.04F
WASHINGTON     MOSUNNY   84  67  57 NE12      30.05S
GREENVILLE     SUNNY     84  64  51 NE8       30.06F
NEW BERN       MOSUNNY   82  67  60 NE16      30.03F
WILMINGTON     MOSUNNY   84  67  56 NE22      30.00F
$$

VAZ048-241800-
ELSEWHERE

CITY           SKY/WX    TMP DP  RH WIND       PRES   REMARKS
HARRISBURG PA  MOSUNNY   86  68  54 W6        30.08F
BALTIMORE      MOSUNNY   88  65  46 VRB5      30.07F
ANNAPOLIS      SUNNY     85  68  56 N3        30.07F
ANDREWS AFB    SUNNY     85  63  47 NE8       30.07F
PHILADELPHIA   MOSUNNY   89  64  43 E9        30.06F
HENDERSON NC   SUNNY     81  58  46 NE6       30.09S
GREENSBORO     PTSUNNY   82  64  54 NE8       30.10F
ROCKY MOUNT    SUNNY     86  65  49 N10       30.06F
$$

VAZ100-241800-
MARINE

STATION/POSITION TIME  TEMP    WIND        PRES    WAVE   SWELL
                       AIR SEA DIR/SP/G            HT/PER HT/PER
                 (UTC) (F)     (DEG/KT/KT) (MB)    (FT/S) (FT/S)
BRANDYWINE LGT   1642   76     250/  3/  4 1018.5F
CAPE MAY NJ      1648   76 75  260/  5/  6 1017.7F
LEWES DE         1642   75 75   60/  5/  6 1018.1F
15NM E FENWICK I 1650   72 72   20/  8/  8 1018.3F   3/12   3/12
OCEAN-CITY-INLET 1642   76 74   90/  7/ 10 1018.6S
WACHAPREAGUE VA  1648   77 77   60/  9/ 11 1018.1R
THOMAS POINT MD  1700   77 76   10/  6/  6   N/A
GOOSES REEF MD   1700   77 76  350/  8/ 10 1019.1    0
COVE POINT MD    1648   75     350/ 11/ 12 1018.9F
SOLOMONS ISLAND  1642   81 77   CALM  /  4 1017.9F
BISHOPS HEAD MD  1648   82 78   30/  3/  4 1018.3F
PINEY POINT MD   1648          310/  5/  6   N/A
POTOMAC MD       1700   78 77   40/  4/  6 1017.6
CAMBRIDGE MD     1642   86 78              1019.0F
LEWISETTA VA     1648   80 78   60/  3/  5 1018.2F
RAPPAHANNOCK LGT 1648          350/ 11/ 11 1018.5F
STINGRAY PT      1700   77 77   50/  8/ 10 1018.4    1/ 3
YORK RVR RNG VA  1648   78      60/ 10/ 11 1018.5S
YORKTOWN VA      1648   81 77   60/  7/  8 1017.7R
JAMESTOWN VA     1700      79   60/  6/ 10   N/A     0
DOMINION TERM VA 1648   83      30/  2/  7 1018.0F
KIPTOPEKE VA     1642      76   50/  7/ 11   N/A
CHES BAY BRIDGE  1648   76 76   20/ 11/ 12 1017.7F
CAPE HENRY VA    1648   77      30/  9/ 10   N/A
WILLOUBY STN VA  1642   76      40/ 11/ 12 1018.0S
S CRANEY ISL VA  1648   79      50/  9/ 10 1017.6F
CAPE HENRY BUOY  1700      76                N/A     3/13   2/13
1ST LANDING BUOY 1700   76 76              1017.6    2/ 4
64NM E OF VA BCH 1650   71 71   50/  8/ 10 1017.9F   8/14   8/14
DUCK PIER NC     1648   74 77   30/ 12/ 12 1017.0F
44100 DUCK FRF   1605      75                N/A     5/13   3/13
44056 DUCK FRF   1700      76                N/A     4/13   2/13
OREGON INLET NC  1642   75 77   40/  9/ 13 1017.2F
HATTERAS NC      1642   76 77   30/ 16/ 20 1016.2F
DIAMOND SHLS NC  1650   75 80   30/ 17/ 21 1015.4F   8/15   7/15
CAPE LOOKOUT NC  1700   78      30/ 19/ 24 1015.6F
$$



USA.gov is the U.S. government's official web portal to all federal, state and local government web resources and services.